EW9525 Weather Reports


time (UTC)temp
C
wind
direction
speed
KPH
gust
KPH
rain 1hr
cm
rain 24hr
cm
rain mn
cm
humidity
%
barometer
mb
20260904171519 29 124 9.7 16.1 0.00 0.00 0.00 50 1007.3
20260904170019 28 110 8.0 24.1 0.00 0.00 0.00 53 1007.3
20260904164516 29 148 14.5 19.3 0.00 0.00 0.00 53 1007.2
20260904163015 29 140 11.3 20.9 0.00 0.00 0.00 52 1006.9
20260904161512 28 155 12.9 16.1 0.00 0.00 0.00 54 1006.9
20260904160008 27 104 9.7 12.9 0.00 0.00 0.00 57 1007.0
20260904154507 27 95 4.8 9.7 0.00 0.00 0.00 57 1007.1
20260904153005 27 148 12.9 17.7 0.00 0.00 0.00 59 1006.9
20260904151506 26 125 12.9 20.9 0.00 0.00 0.00 60 1006.9
20260904150002 27 222 4.8 17.7 0.00 0.00 0.00 59 1007.2
20260904144610 26 88 1.6 6.4 0.00 0.00 0.00 61 1007.2
20260904143100 25 144 4.8 14.5 0.00 0.00 0.00 66 1007.0
20260904141554 24 138 6.4 12.9 0.00 0.00 0.00 68 1007.0
20260904140047 23 103 4.8 8.0 0.00 0.00 0.00 67 1007.1
20260904134546 22 316 3.2 6.4 0.00 0.00 0.00 74 1007.0
20260904133051 23 113 0.0 1.6 0.00 0.00 0.00 71 1006.8
20260904131540 22 136 0.0 4.8 0.00 0.00 0.00 72 1006.6
20260904130040 21 127 0.0 11.3 0.00 0.00 0.00 73 1006.2
20260904124542 20 110 1.6 3.2 0.00 0.00 0.00 74 1006.2
20260904123039 20 93 3.2 4.8 0.00 0.00 0.00 76 1006.1
20260904121539 20 96 1.6 6.4 0.00 0.00 0.00 77 1006.1
20260904120042 20 82 3.2 4.8 0.00 0.00 0.00 77 1006.1
20260904114540 20 110 3.2 4.8 0.00 0.00 0.00 76 1006.1
20260904113038 20 77 0.0 1.6 0.00 0.00 0.00 76 1006.1
20260904111537 20 84 1.6 3.2 0.00 0.00 0.00 76 1006.1
20260904110037 20 101 0.0 0.0 0.00 0.00 0.00 73 1006.2
20260904104539 20 86 0.0 0.0 0.00 0.00 0.00 75 1006.2
20260904103035 20 100 0.0 0.0 0.00 0.00 0.00 74 1006.1
20260904101534 20 214 0.0 0.0 0.00 0.00 0.00 75 1006.0
20260904100036 20 213 0.0 0.0 0.00 0.00 0.00 75 1006.0
20260904094533 21 201 0.0 4.8 0.00 0.00 0.00 73 1006.1
20260904093033 21 201 3.2 4.8 0.00 0.00 0.00 72 1006.1
20260904091547 22 186 0.0 4.8 0.00 0.00 0.00 70 1006.0
20260904090031 22 188 6.4 14.5 0.00 0.00 0.00 67 1006.0
20260904084528 22 138 1.6 8.0 0.00 0.00 0.00 71 1005.9
20260904083030 21 137 0.0 6.4 0.00 0.00 0.00 74 1005.8
20260904081525 21 121 4.8 9.7 0.00 0.00 0.00 75 1005.8
20260904080024 21 324 0.0 0.0 0.00 0.00 0.00 75 1005.8
20260904074544 21 101 4.8 11.3 0.00 0.00 0.00 75 1006.0
20260904073023 20 38 0.0 0.0 0.00 0.00 0.00 77 1006.1
20260904071521 20 69 0.0 0.0 0.00 0.00 0.00 79 1006.2
20260904070020 18 8 0.0 3.2 0.00 0.00 0.00 79 1006.3
20260904064518 19 21 0.0 3.2 0.00 0.00 0.00 78 1006.4
20260904063034 19 95 8.0 9.7 0.00 0.00 0.00 77 1006.7
20260904061514 20 340 1.6 3.2 0.00 0.00 0.00 75 1006.1
20260904060011 20 108 1.6 8.0 0.00 0.00 0.00 72 1006.3
20260904054509 21 328 0.0 0.0 0.00 0.00 0.00 70 1006.0
20260904053007 21 328 0.0 0.0 0.00 0.00 0.00 69 1005.9
20260904051505 21 328 0.0 0.0 0.00 0.00 0.00 70 1005.9
20260904050002 21 117 0.0 0.0 0.00 0.00 0.00 70 1006.1
20260904044621 21 219 0.0 0.0 0.00 0.00 0.00 70 1006.0
20260904043001 22 219 0.0 0.0 0.00 0.00 0.00 68 1006.0
20260904041611 21 218 0.0 0.0 0.00 0.00 0.00 70 1006.2
20260904040100 22 153 0.0 4.8 0.00 0.00 0.00 69 1006.3
20260904034559 21 357 0.0 4.8 0.00 0.00 0.00 70 1006.2
20260904033103 22 2 4.8 6.4 0.00 0.00 0.00 67 1006.2
20260904031606 22 220 0.0 0.0 0.00 0.00 0.00 68 1006.2
20260904030057 22 190 0.0 6.4 0.00 0.00 0.00 67 1006.3
20260904024555 23 357 0.0 0.0 0.00 0.00 0.00 61 1005.8
20260904023154 25 354 0.0 0.0 0.00 0.00 0.00 56 1005.7
20260904021554 26 345 0.0 0.0 0.00 0.00 0.00 54 1005.8
20260904020051 26 345 0.0 3.2 0.00 0.00 0.00 55 1005.6
20260904014553 26 360 0.0 0.0 0.00 0.00 0.00 56 1005.4
20260904013052 27 77 0.0 0.0 0.00 0.00 0.00 57 1005.3
20260904011553 28 78 0.0 0.0 0.00 0.00 0.00 54 1005.1
20260904010052 29 82 0.0 0.0 0.00 0.00 0.00 51 1005.0
20260904004550 30 89 0.0 1.6 0.00 0.00 0.00 48 1005.2
20260904003050 31 86 0.0 3.2 0.00 0.00 0.00 45 1005.1
20260904001549 32 79 1.6 4.8 0.00 0.00 0.00 42 1005.0
20260904000049 32 84 3.2 6.4 0.00 0.00 0.00 41 1004.9
20260903234548 32 95 6.4 11.3 0.00 0.00 0.00 40 1004.9
20260903233048 33 82 6.4 9.7 0.00 0.00 0.00 39 1004.7
20260903231552 33 86 8.0 11.3 0.00 0.00 0.00 39 1004.6
20260903230049 33 68 4.8 14.5 0.00 0.00 0.00 34 1004.5
20260903224547 33 58 9.7 16.1 0.00 0.00 0.00 36 1004.4
20260903223045 33 41 9.7 19.3 0.00 0.00 0.00 35 1004.4
20260903221549 33 46 11.3 17.7 0.00 0.00 0.00 36 1004.4
20260903220043 33 22 8.0 16.1 0.00 0.00 0.00 35 1004.5
20260903214544 33 34 12.9 19.3 0.00 0.00 0.00 36 1004.5
20260903213042 33 324 9.7 22.5 0.00 0.00 0.00 35 1004.5
20260903211548 33 6 11.3 24.1 0.00 0.00 0.00 36 1004.6
20260903210041 33 24 12.9 20.9 0.00 0.00 0.00 37 1004.7
20260903204537 32 327 9.7 19.3 0.00 0.00 0.00 37 1004.8
20260903203046 32 30 11.3 20.9 0.00 0.00 0.00 39 1004.7
20260903201534 32 313 12.9 22.5 0.00 0.00 0.00 40 1004.8
20260903200042 32 30 9.7 17.7 0.00 0.00 0.00 42 1004.7
20260903194540 32 52 6.4 17.7 0.00 0.00 0.00 44 1004.9
20260903193035 31 300 8.0 17.7 0.00 0.00 0.00 43 1004.9
20260903191533 31 345 6.4 16.1 0.00 0.00 0.00 42 1004.9
20260903190026 31 32 9.7 16.1 0.00 0.00 0.00 43 1004.9
20260903184523 30 41 4.8 14.5 0.00 0.00 0.00 46 1005.1
20260903183022 30 11 8.0 17.7 0.00 0.00 0.00 46 1005.2
20260903181519 30 258 0.0 11.3 0.00 0.00 0.00 50 1005.4
20260903180030 30 24 8.0 12.9 0.00 0.00 0.00 50 1005.4
20260903174514 29 51 6.4 12.9 0.00 0.00 0.00 49 1005.6
20260903173013 28 16 4.8 14.5 0.00 0.00 0.00 50 1005.7